| time (UTC) | temp C | wind direction | speed KPH | gust KPH | rain 1hr cm | rain 24hr cm | rain mn cm | humidity % | barometer mb |
| 20260506105945 | 23 | 185 | 0.0 | 1.6 | 0.00 | 0.00 | 0.00 | 92 | 1006.0 |
| 20260506105442 | 23 | 208 | 1.6 | 1.6 | 0.00 | 0.00 | 0.00 | 92 | 1005.6 |
| 20260506104939 | 24 | 233 | 3.2 | 4.8 | 0.00 | 0.00 | 0.00 | 92 | 1005.8 |
| 20260506104437 | 24 | 197 | 1.6 | 1.6 | 0.00 | 0.00 | 0.00 | 92 | 1005.6 |
| 20260506103936 | 24 | 286 | 3.2 | 3.2 | 0.00 | 0.00 | 0.00 | 92 | 1005.4 |
| 20260506103432 | 24 | 214 | 3.2 | 3.2 | 0.00 | 0.00 | 0.00 | 91 | 1005.7 |
| 20260506102929 | 24 | 218 | 1.6 | 3.2 | 0.00 | 0.00 | 0.00 | 91 | 1005.7 |
| 20260506102427 | 24 | 198 | 1.6 | 1.6 | 0.00 | 0.00 | 0.00 | 91 | 1005.5 |
| 20260506101924 | 24 | 229 | 3.2 | 3.2 | 0.00 | 0.00 | 0.00 | 91 | 1005.5 |
| 20260506101420 | 24 | 219 | 4.8 | 4.8 | 0.00 | 0.00 | 0.00 | 91 | 1005.6 |
| 20260506100918 | 24 | 216 | 4.8 | 8.0 | 0.00 | 0.00 | 0.00 | 91 | 1005.8 |
| 20260506100416 | 24 | 246 | 3.2 | 3.2 | 0.00 | 0.00 | 0.00 | 90 | 1005.6 |
| 20260506095914 | 24 | 205 | 4.8 | 4.8 | 0.00 | 0.00 | 0.00 | 90 | 1005.6 |
| 20260506095412 | 24 | 184 | 3.2 | 3.2 | 0.00 | 0.00 | 0.00 | 90 | 1005.2 |
| 20260506094908 | 24 | 220 | 3.2 | 3.2 | 0.00 | 0.00 | 0.00 | 90 | 1005.5 |
| 20260506094407 | 24 | 230 | 6.4 | 11.3 | 0.00 | 0.00 | 0.00 | 90 | 1005.3 |
| 20260506093904 | 24 | 224 | 4.8 | 8.0 | 0.00 | 0.00 | 0.00 | 90 | 1005.3 |
| 20260506093402 | 24 | 226 | 4.8 | 4.8 | 0.00 | 0.00 | 0.00 | 90 | 1005.2 |
| 20260506092859 | 25 | 202 | 3.2 | 4.8 | 0.00 | 0.00 | 0.00 | 90 | 1005.6 |
| 20260506092357 | 25 | 208 | 4.8 | 4.8 | 0.00 | 0.00 | 0.00 | 90 | 1005.3 |
| 20260506091853 | 25 | 172 | 3.2 | 4.8 | 0.00 | 0.00 | 0.00 | 90 | 1005.2 |
| 20260506091352 | 25 | 228 | 8.0 | 9.7 | 0.00 | 0.00 | 0.00 | 90 | 1005.2 |
| 20260506090848 | 25 | 220 | 8.0 | 11.3 | 0.00 | 0.00 | 0.00 | 90 | 1005.1 |
| 20260506090346 | 25 | 162 | 6.4 | 9.7 | 0.00 | 0.00 | 0.00 | 90 | 1005.0 |
| 20260506085843 | 25 | 234 | 8.0 | 11.3 | 0.00 | 0.00 | 0.00 | 90 | 1005.2 |
| 20260506085339 | 25 | 235 | 4.8 | 4.8 | 0.00 | 0.00 | 0.00 | 90 | 1005.1 |
| 20260506084835 | 25 | 201 | 4.8 | 4.8 | 0.00 | 0.00 | 0.00 | 90 | 1005.4 |
| 20260506084332 | 25 | 213 | 3.2 | 3.2 | 0.00 | 0.00 | 0.00 | 90 | 1005.3 |
| 20260506083829 | 25 | 195 | 4.8 | 4.8 | 0.00 | 0.00 | 0.00 | 90 | 1005.1 |
| 20260506083326 | 25 | 188 | 6.4 | 9.7 | 0.00 | 0.00 | 0.00 | 90 | 1005.3 |
| 20260506082824 | 25 | 166 | 8.0 | 11.3 | 0.00 | 0.00 | 0.00 | 90 | 1005.5 |
| 20260506082320 | 25 | 230 | 6.4 | 8.0 | 0.00 | 0.00 | 0.00 | 90 | 1005.2 |
| 20260506081816 | 25 | 236 | 4.8 | 4.8 | 0.00 | 0.00 | 0.00 | 90 | 1005.6 |
| 20260506081314 | 25 | 229 | 4.8 | 4.8 | 0.00 | 0.00 | 0.00 | 89 | 1005.4 |
| 20260506080812 | 25 | 229 | 3.2 | 3.2 | 0.00 | 0.00 | 0.00 | 89 | 1005.6 |
| 20260506080308 | 25 | 206 | 3.2 | 4.8 | 0.00 | 0.00 | 0.00 | 89 | 1005.8 |
| 20260506073252 | 25 | 232 | 3.2 | 3.2 | 0.00 | 0.00 | 0.00 | 89 | 1006.2 |
| 20260506072749 | 25 | 217 | 4.8 | 4.8 | 0.00 | 0.00 | 0.00 | 89 | 1006.1 |
| 20260506072246 | 25 | 222 | 4.8 | 4.8 | 0.00 | 0.00 | 0.00 | 89 | 1006.4 |
| 20260506071744 | 25 | 209 | 9.7 | 11.3 | 0.00 | 0.00 | 0.00 | 89 | 1006.2 |
| 20260506071242 | 25 | 250 | 3.2 | 4.8 | 0.00 | 0.00 | 0.00 | 89 | 1006.2 |
| 20260506070738 | 25 | 194 | 4.8 | 4.8 | 0.00 | 0.00 | 0.00 | 89 | 1006.3 |
| 20260506070235 | 25 | 221 | 4.8 | 4.8 | 0.00 | 0.00 | 0.00 | 89 | 1006.3 |
| 20260506062212 | 25 | 234 | 4.8 | 4.8 | 0.00 | 0.00 | 0.00 | 89 | 1006.2 |
| 20260506061708 | 25 | 212 | 3.2 | 3.2 | 0.00 | 0.00 | 0.00 | 89 | 1006.3 |
| 20260506061206 | 25 | 168 | 3.2 | 4.8 | 0.00 | 0.00 | 0.00 | 89 | 1006.2 |
| 20260506060705 | 25 | 220 | 6.4 | 9.7 | 0.00 | 0.00 | 0.00 | 89 | 1006.4 |
| 20260506060201 | 25 | 220 | 6.4 | 9.7 | 0.00 | 0.00 | 0.00 | 89 | 1006.3 |
| 20260506051133 | 25 | 204 | 4.8 | 8.0 | 0.00 | 0.00 | 0.00 | 88 | 1006.2 |
| 20260506050631 | 25 | 201 | 3.2 | 3.2 | 0.00 | 0.00 | 0.00 | 88 | 1006.4 |
| 20260506050128 | 25 | 219 | 3.2 | 3.2 | 0.00 | 0.00 | 0.00 | 88 | 1006.4 |
| 20260506045121 | 25 | 238 | 6.4 | 8.0 | 0.00 | 0.00 | 0.00 | 87 | 1006.4 |
| 20260506044619 | 25 | 178 | 6.4 | 9.7 | 0.00 | 0.00 | 0.00 | 87 | 1006.5 |
| 20260506044116 | 25 | 209 | 3.2 | 3.2 | 0.00 | 0.00 | 0.00 | 87 | 1006.2 |
| 20260506043613 | 25 | 222 | 1.6 | 3.2 | 0.00 | 0.00 | 0.00 | 87 | 1006.2 |
| 20260506043111 | 25 | 221 | 8.0 | 9.7 | 0.00 | 0.00 | 0.00 | 86 | 1006.3 |
| 20260506042610 | 25 | 220 | 3.2 | 3.2 | 0.00 | 0.00 | 0.00 | 86 | 1006.4 |
| 20260506042107 | 25 | 215 | 3.2 | 4.8 | 0.00 | 0.00 | 0.00 | 86 | 1006.5 |
| 20260506041606 | 25 | 148 | 1.6 | 1.6 | 0.00 | 0.00 | 0.00 | 86 | 1006.5 |
| 20260506041102 | 25 | 200 | 6.4 | 8.0 | 0.00 | 0.00 | 0.00 | 86 | 1006.4 |
| 20260506040600 | 25 | 221 | 4.8 | 4.8 | 0.00 | 0.00 | 0.00 | 86 | 1006.1 |
| 20260506040056 | 25 | 216 | 4.8 | 4.8 | 0.00 | 0.00 | 0.00 | 86 | 1006.1 |
| 20260506035553 | 25 | 211 | 8.0 | 9.7 | 0.00 | 0.00 | 0.00 | 85 | 1006.2 |
| 20260506035050 | 25 | 203 | 4.8 | 4.8 | 0.00 | 0.00 | 0.00 | 85 | 1006.1 |
| 20260506034547 | 25 | 205 | 4.8 | 4.8 | 0.00 | 0.00 | 0.00 | 85 | 1006.1 |
| 20260506034044 | 25 | 235 | 4.8 | 4.8 | 0.00 | 0.00 | 0.00 | 85 | 1005.9 |
| 20260506033541 | 26 | 194 | 6.4 | 9.7 | 0.00 | 0.00 | 0.00 | 85 | 1006.0 |
| 20260506033038 | 26 | 192 | 3.2 | 3.2 | 0.00 | 0.00 | 0.00 | 85 | 1005.8 |
| 20260506032536 | 26 | 227 | 4.8 | 4.8 | 0.00 | 0.00 | 0.00 | 85 | 1005.9 |
| 20260506032032 | 26 | 214 | 3.2 | 3.2 | 0.00 | 0.00 | 0.00 | 84 | 1005.8 |
| 20260506031530 | 26 | 156 | 3.2 | 3.2 | 0.00 | 0.00 | 0.00 | 84 | 1005.9 |
| 20260506031027 | 26 | 231 | 8.0 | 11.3 | 0.00 | 0.00 | 0.00 | 84 | 1005.9 |
| 20260506030525 | 26 | 191 | 4.8 | 8.0 | 0.00 | 0.00 | 0.00 | 84 | 1005.7 |
| 20260506030022 | 26 | 192 | 4.8 | 4.8 | 0.00 | 0.00 | 0.00 | 84 | 1005.8 |
| 20260506025519 | 26 | 201 | 8.0 | 9.7 | 0.00 | 0.00 | 0.00 | 84 | 1005.7 |
| 20260506025015 | 26 | 169 | 4.8 | 4.8 | 0.00 | 0.00 | 0.00 | 84 | 1005.5 |
| 20260506024512 | 26 | 178 | 6.4 | 8.0 | 0.00 | 0.00 | 0.00 | 84 | 1005.6 |
| 20260506024008 | 26 | 195 | 3.2 | 3.2 | 0.00 | 0.00 | 0.00 | 83 | 1005.0 |
| 20260506023504 | 26 | 196 | 4.8 | 8.0 | 0.00 | 0.00 | 0.00 | 83 | 1005.0 |
| 20260506023002 | 26 | 236 | 4.8 | 4.8 | 0.00 | 0.00 | 0.00 | 83 | 1005.3 |
| 20260506022500 | 26 | 229 | 3.2 | 3.2 | 0.00 | 0.00 | 0.00 | 83 | 1005.0 |
| 20260506021957 | 26 | 219 | 8.0 | 11.3 | 0.00 | 0.00 | 0.00 | 83 | 1004.8 |
| 20260506021454 | 26 | 240 | 8.0 | 12.9 | 0.00 | 0.00 | 0.00 | 82 | 1005.1 |
| 20260506020951 | 26 | 226 | 3.2 | 3.2 | 0.00 | 0.00 | 0.00 | 82 | 1004.8 |
| 20260506020449 | 26 | 218 | 1.6 | 3.2 | 0.00 | 0.00 | 0.00 | 82 | 1004.5 |
| 20260506015946 | 26 | 225 | 6.4 | 8.0 | 0.00 | 0.00 | 0.00 | 81 | 1004.9 |
| 20260506015443 | 26 | 228 | 6.4 | 8.0 | 0.00 | 0.00 | 0.00 | 81 | 1004.8 |
| 20260506014940 | 26 | 198 | 8.0 | 9.7 | 0.00 | 0.00 | 0.00 | 81 | 1004.6 |
| 20260506014437 | 26 | 204 | 6.4 | 11.3 | 0.00 | 0.00 | 0.00 | 81 | 1004.6 |
| 20260506013933 | 26 | 202 | 8.0 | 9.7 | 0.00 | 0.00 | 0.00 | 81 | 1004.4 |
| 20260506013432 | 26 | 245 | 8.0 | 9.7 | 0.00 | 0.00 | 0.00 | 80 | 1004.3 |
| 20260506012928 | 26 | 213 | 6.4 | 9.7 | 0.00 | 0.00 | 0.00 | 80 | 1004.4 |
| 20260506012424 | 26 | 210 | 6.4 | 8.0 | 0.00 | 0.00 | 0.00 | 80 | 1004.2 |
| 20260506011921 | 26 | 216 | 6.4 | 8.0 | 0.00 | 0.00 | 0.00 | 80 | 1004.3 |
| 20260506011419 | 26 | 223 | 3.2 | 3.2 | 0.00 | 0.00 | 0.00 | 81 | 1004.1 |
| 20260506010915 | 26 | 225 | 3.2 | 3.2 | 0.00 | 0.00 | 0.00 | 80 | 1004.1 |
| 20260506010414 | 26 | 179 | 6.4 | 8.0 | 0.00 | 0.00 | 0.00 | 80 | 1004.1 |
| 20260506005910 | 26 | 205 | 8.0 | 9.7 | 0.00 | 0.00 | 0.00 | 80 | 1003.9 |
| 20260506005408 | 26 | 198 | 4.8 | 8.0 | 0.00 | 0.00 | 0.00 | 80 | 1004.0 |
| 20260506004903 | 26 | 184 | 6.4 | 8.0 | 0.00 | 0.00 | 0.00 | 80 | 1003.8 |
| 20260506004401 | 26 | 226 | 4.8 | 4.8 | 0.00 | 0.00 | 0.00 | 80 | 1003.9 |
| 20260506003857 | 27 | 189 | 6.4 | 8.0 | 0.00 | 0.00 | 0.00 | 80 | 1003.9 |
| 20260506003353 | 27 | 244 | 9.7 | 11.3 | 0.00 | 0.00 | 0.00 | 80 | 1003.6 |
| 20260506002850 | 27 | 222 | 4.8 | 8.0 | 0.00 | 0.00 | 0.00 | 80 | 1003.6 |
| 20260506002346 | 27 | 224 | 4.8 | 4.8 | 0.00 | 0.00 | 0.00 | 80 | 1003.8 |
| 20260506001842 | 27 | 189 | 3.2 | 3.2 | 0.00 | 0.00 | 0.00 | 80 | 1003.9 |
| 20260506001339 | 27 | 133 | 6.4 | 8.0 | 0.00 | 0.00 | 0.00 | 79 | 1003.8 |
| 20260506000836 | 27 | 174 | 4.8 | 8.0 | 0.00 | 0.00 | 0.00 | 79 | 1003.5 |
| 20260506000334 | 27 | 212 | 8.0 | 9.7 | 0.00 | 0.00 | 0.00 | 78 | 1003.6 |
| 20260505235830 | 27 | 194 | 6.4 | 8.0 | 0.00 | 0.00 | 0.00 | 78 | 1003.7 |
| 20260505235328 | 27 | 190 | 6.4 | 9.7 | 0.00 | 0.00 | 0.00 | 77 | 1003.6 |
| 20260505234824 | 27 | 229 | 4.8 | 4.8 | 0.00 | 0.00 | 0.00 | 76 | 1003.6 |
| 20260505234322 | 27 | 228 | 4.8 | 8.0 | 0.00 | 0.00 | 0.00 | 75 | 1003.5 |
| 20260505233819 | 28 | 226 | 6.4 | 9.7 | 0.00 | 0.00 | 0.00 | 76 | 1003.5 |
| 20260505233317 | 28 | 231 | 4.8 | 4.8 | 0.00 | 0.00 | 0.00 | 76 | 1003.5 |
| 20260505232814 | 28 | 226 | 4.8 | 8.0 | 0.00 | 0.00 | 0.00 | 75 | 1003.4 |
| 20260505232312 | 27 | 227 | 4.8 | 4.8 | 0.00 | 0.00 | 0.00 | 75 | 1003.5 |
| 20260505231808 | 28 | 256 | 9.7 | 11.3 | 0.00 | 0.00 | 0.00 | 75 | 1003.6 |
| 20260505231307 | 28 | 247 | 8.0 | 11.3 | 0.00 | 0.00 | 0.00 | 75 | 1003.7 |
| 20260505230804 | 28 | 234 | 6.4 | 8.0 | 0.00 | 0.00 | 0.00 | 75 | 1003.6 |
| 20260505230301 | 28 | 208 | 8.0 | 9.7 | 0.00 | 0.00 | 0.00 | 75 | 1003.8 |
| 20260505225757 | 28 | 170 | 3.2 | 3.2 | 0.00 | 0.00 | 0.00 | 74 | 1003.6 |
| 20260505225255 | 28 | 249 | 9.7 | 11.3 | 0.00 | 0.00 | 0.00 | 74 | 1003.7 |
| 20260505224749 | 28 | 204 | 4.8 | 4.8 | 0.00 | 0.00 | 0.00 | 74 | 1003.8 |
| 20260505224248 | 28 | 227 | 8.0 | 11.3 | 0.00 | 0.00 | 0.00 | 74 | 1003.5 |
| 20260505223745 | 28 | 283 | 8.0 | 9.7 | 0.00 | 0.00 | 0.00 | 74 | 1003.6 |
| 20260505223241 | 28 | 218 | 9.7 | 11.3 | 0.00 | 0.00 | 0.00 | 74 | 1003.3 |
| 20260505222737 | 28 | 249 | 3.2 | 3.2 | 0.00 | 0.00 | 0.00 | 74 | 1003.7 |
| 20260505222234 | 28 | 225 | 9.7 | 12.9 | 0.00 | 0.00 | 0.00 | 74 | 1003.9 |
| 20260505221731 | 28 | 240 | 9.7 | 12.9 | 0.00 | 0.00 | 0.00 | 74 | 1003.8 |
| 20260505221227 | 28 | 199 | 4.8 | 4.8 | 0.00 | 0.00 | 0.00 | 75 | 1003.6 |
| 20260505220724 | 28 | 210 | 8.0 | 9.7 | 0.00 | 0.00 | 0.00 | 75 | 1003.7 |
| 20260505220222 | 28 | 179 | 6.4 | 8.0 | 0.00 | 0.00 | 0.00 | 75 | 1003.7 |
| 20260505215720 | 28 | 235 | 4.8 | 4.8 | 0.00 | 0.00 | 0.00 | 76 | 1004.1 |
| 20260505215217 | 28 | 244 | 8.0 | 9.7 | 0.00 | 0.00 | 0.00 | 74 | 1003.9 |
| 20260505214715 | 28 | 223 | 4.8 | 4.8 | 0.00 | 0.00 | 0.00 | 75 | 1003.9 |
| 20260505214212 | 28 | 200 | 8.0 | 9.7 | 0.00 | 0.00 | 0.00 | 75 | 1004.1 |
| 20260505213709 | 28 | 202 | 4.8 | 4.8 | 0.00 | 0.00 | 0.00 | 75 | 1004.2 |
| 20260505213207 | 28 | 213 | 4.8 | 4.8 | 0.00 | 0.00 | 0.00 | 74 | 1004.2 |
| 20260505212702 | 28 | 217 | 4.8 | 4.8 | 0.00 | 0.00 | 0.00 | 75 | 1004.4 |
| 20260505212200 | 28 | 273 | 4.8 | 8.0 | 0.00 | 0.00 | 0.00 | 75 | 1004.4 |
| 20260505211657 | 28 | 231 | 3.2 | 3.2 | 0.00 | 0.00 | 0.00 | 75 | 1004.5 |
| 20260505211154 | 28 | 214 | 6.4 | 9.7 | 0.00 | 0.00 | 0.00 | 75 | 1004.1 |
| 20260505210650 | 28 | 224 | 8.0 | 9.7 | 0.00 | 0.00 | 0.00 | 74 | 1004.6 |
| 20260505210147 | 28 | 241 | 4.8 | 4.8 | 0.00 | 0.00 | 0.00 | 74 | 1004.4 |
| 20260505205645 | 28 | 208 | 4.8 | 4.8 | 0.00 | 0.00 | 0.00 | 74 | 1004.6 |
| 20260505205143 | 29 | 252 | 6.4 | 8.0 | 0.00 | 0.00 | 0.00 | 73 | 1004.5 |
| 20260505204639 | 29 | 185 | 4.8 | 4.8 | 0.00 | 0.00 | 0.00 | 73 | 1004.7 |
| 20260505204137 | 29 | 238 | 8.0 | 11.3 | 0.00 | 0.00 | 0.00 | 72 | 1004.8 |
| 20260505203634 | 28 | 203 | 3.2 | 4.8 | 0.00 | 0.00 | 0.00 | 74 | 1004.8 |
| 20260505203131 | 28 | 215 | 6.4 | 9.7 | 0.00 | 0.00 | 0.00 | 73 | 1005.3 |
| 20260505202626 | 28 | 218 | 4.8 | 9.7 | 0.00 | 0.00 | 0.00 | 74 | 1004.9 |
| 20260505202122 | 28 | 214 | 6.4 | 8.0 | 0.00 | 0.00 | 0.00 | 74 | 1004.8 |
| 20260505201619 | 29 | 210 | 6.4 | 8.0 | 0.00 | 0.00 | 0.00 | 73 | 1005.1 |
| 20260505201117 | 29 | 247 | 8.0 | 9.7 | 0.00 | 0.00 | 0.00 | 73 | 1005.3 |
| 20260505200615 | 28 | 220 | 4.8 | 4.8 | 0.00 | 0.00 | 0.00 | 74 | 1005.1 |
| 20260505200112 | 29 | 221 | 9.7 | 12.9 | 0.00 | 0.00 | 0.00 | 74 | 1005.3 |
| 20260505195608 | 28 | 236 | 9.7 | 11.3 | 0.00 | 0.00 | 0.00 | 75 | 1005.3 |
| 20260505195106 | 28 | 231 | 8.0 | 12.9 | 0.00 | 0.00 | 0.00 | 76 | 1005.4 |
| 20260505194602 | 28 | 164 | 6.4 | 8.0 | 0.00 | 0.00 | 0.00 | 77 | 1005.6 |
| 20260505194058 | 27 | 209 | 6.4 | 8.0 | 0.00 | 0.00 | 0.00 | 78 | 1005.5 |
| 20260505193555 | 27 | 242 | 6.4 | 8.0 | 0.00 | 0.00 | 0.00 | 78 | 1005.4 |
| 20260505193052 | 27 | 220 | 8.0 | 9.7 | 0.00 | 0.00 | 0.00 | 77 | 1005.6 |
| 20260505192551 | 27 | 239 | 8.0 | 11.3 | 0.00 | 0.00 | 0.00 | 76 | 1005.8 |
| 20260505192048 | 28 | 215 | 8.0 | 9.7 | 0.00 | 0.00 | 0.00 | 76 | 1005.5 |
| 20260505191546 | 28 | 260 | 8.0 | 11.3 | 0.00 | 0.00 | 0.00 | 75 | 1005.8 |
| 20260505191043 | 28 | 237 | 4.8 | 8.0 | 0.00 | 0.00 | 0.00 | 76 | 1005.7 |
| 20260505190538 | 28 | 203 | 8.0 | 8.0 | 0.00 | 0.00 | 0.00 | 76 | 1005.8 |
| 20260505190034 | 28 | 212 | 8.0 | 9.7 | 0.00 | 0.00 | 0.00 | 76 | 1005.9 |
| 20260505185531 | 27 | 214 | 8.0 | 14.5 | 0.00 | 0.00 | 0.00 | 77 | 1005.9 |
| 20260505185028 | 27 | 246 | 4.8 | 4.8 | 0.00 | 0.00 | 0.00 | 78 | 1006.0 |
| 20260505184524 | 27 | 215 | 4.8 | 4.8 | 0.00 | 0.00 | 0.00 | 77 | 1006.1 |
| 20260505184021 | 27 | 259 | 8.0 | 9.7 | 0.00 | 0.00 | 0.00 | 77 | 1006.2 |
| 20260505183518 | 27 | 242 | 3.2 | 4.8 | 0.00 | 0.00 | 0.00 | 78 | 1006.2 |
| 20260505183015 | 27 | 239 | 8.0 | 9.7 | 0.00 | 0.00 | 0.00 | 79 | 1006.0 |
| 20260505182512 | 26 | 232 | 8.0 | 9.7 | 0.00 | 0.00 | 0.00 | 80 | 1006.0 |
| 20260505182008 | 27 | 194 | 8.0 | 9.7 | 0.00 | 0.00 | 0.00 | 80 | 1006.1 |
| 20260505181505 | 27 | 213 | 12.9 | 16.1 | 0.00 | 0.00 | 0.00 | 79 | 1006.2 |
| 20260505181003 | 27 | 36 | 6.4 | 11.3 | 0.00 | 0.00 | 0.00 | 79 | 1006.1 |
| 20260505180458 | 27 | 276 | 4.8 | 8.0 | 0.00 | 0.00 | 0.00 | 79 | 1006.0 |
| 20260505175955 | 27 | 214 | 4.8 | 8.0 | 0.00 | 0.00 | 0.00 | 80 | 1006.2 |
| 20260505175451 | 27 | 221 | 4.8 | 8.0 | 0.00 | 0.00 | 0.00 | 80 | 1006.3 |
| 20260505174948 | 26 | 231 | 4.8 | 4.8 | 0.00 | 0.00 | 0.00 | 81 | 1006.3 |
| 20260505174445 | 26 | 225 | 1.6 | 3.2 | 0.00 | 0.00 | 0.00 | 81 | 1006.4 |
| 20260505173941 | 26 | 242 | 3.2 | 3.2 | 0.00 | 0.00 | 0.00 | 81 | 1006.1 |
| 20260505173438 | 26 | 230 | 8.0 | 11.3 | 0.00 | 0.00 | 0.00 | 81 | 1006.5 |
| 20260505172935 | 26 | 185 | 6.4 | 8.0 | 0.00 | 0.00 | 0.00 | 82 | 1006.4 |
| 20260505172433 | 26 | 228 | 8.0 | 9.7 | 0.00 | 0.00 | 0.00 | 83 | 1006.8 |
| 20260505171932 | 25 | 245 | 3.2 | 3.2 | 0.00 | 0.00 | 0.00 | 85 | 1006.6 |
| 20260505171430 | 25 | 221 | 4.8 | 4.8 | 0.00 | 0.00 | 0.00 | 85 | 1006.5 |
| 20260505170926 | 25 | 220 | 6.4 | 9.7 | 0.00 | 0.00 | 0.00 | 86 | 1006.5 |
| 20260505170423 | 25 | 212 | 6.4 | 8.0 | 0.00 | 0.00 | 0.00 | 85 | 1006.6 |
| 20260505165918 | 26 | 178 | 6.4 | 9.7 | 0.00 | 0.00 | 0.00 | 83 | 1006.7 |
| 20260505165415 | 26 | 213 | 4.8 | 8.0 | 0.00 | 0.00 | 0.00 | 82 | 1006.7 |
| 20260505164910 | 26 | 266 | 4.8 | 9.7 | 0.00 | 0.00 | 0.00 | 82 | 1006.7 |
| 20260505164407 | 26 | 220 | 4.8 | 4.8 | 0.00 | 0.00 | 0.00 | 82 | 1006.7 |
| 20260505163905 | 26 | 196 | 3.2 | 3.2 | 0.00 | 0.00 | 0.00 | 83 | 1006.6 |
| 20260505163404 | 26 | 260 | 12.9 | 16.1 | 0.00 | 0.00 | 0.00 | 82 | 1006.8 |
| 20260505162902 | 26 | 216 | 9.7 | 12.9 | 0.00 | 0.00 | 0.00 | 82 | 1006.7 |
| 20260505162357 | 26 | 221 | 4.8 | 8.0 | 0.00 | 0.00 | 0.00 | 83 | 1006.7 |
| 20260505161855 | 25 | 203 | 4.8 | 4.8 | 0.00 | 0.00 | 0.00 | 83 | 1006.6 |
| 20260505161351 | 25 | 241 | 8.0 | 9.7 | 0.00 | 0.00 | 0.00 | 82 | 1006.4 |
| 20260505160849 | 25 | 196 | 4.8 | 4.8 | 0.00 | 0.00 | 0.00 | 83 | 1006.7 |
| 20260505160347 | 25 | 217 | 8.0 | 11.3 | 0.00 | 0.00 | 0.00 | 83 | 1006.5 |
| 20260505153325 | 25 | 213 | 6.4 | 8.0 | 0.00 | 0.00 | 0.00 | 84 | 1006.4 |
| 20260505152822 | 25 | 199 | 4.8 | 4.8 | 0.00 | 0.00 | 0.00 | 84 | 1006.4 |
| 20260505152319 | 25 | 210 | 4.8 | 8.0 | 0.00 | 0.00 | 0.00 | 84 | 1006.4 |
| 20260505151814 | 25 | 270 | 6.4 | 9.7 | 0.00 | 0.00 | 0.00 | 84 | 1006.5 |
| 20260505151311 | 25 | 223 | 4.8 | 4.8 | 0.00 | 0.00 | 0.00 | 84 | 1006.3 |
| 20260505150808 | 25 | 260 | 4.8 | 8.0 | 0.00 | 0.00 | 0.00 | 84 | 1006.3 |
| 20260505150305 | 25 | 232 | 3.2 | 3.2 | 0.00 | 0.00 | 0.00 | 84 | 1006.3 |
| 20260505140229 | 24 | 209 | 4.8 | 4.8 | 0.00 | 0.00 | 0.00 | 86 | 1005.9 |
| 20260505130153 | 23 | 223 | 4.8 | 4.8 | 0.00 | 0.00 | 0.00 | 88 | 1006.1 |
| 20260505124643 | 22 | 166 | 4.8 | 4.8 | 0.00 | 0.00 | 0.00 | 89 | 1005.6 |
| 20260505124139 | 22 | 158 | 3.2 | 3.2 | 0.00 | 0.00 | 0.00 | 89 | 1005.5 |
| 20260505123635 | 22 | 202 | 4.8 | 8.0 | 0.00 | 0.00 | 0.00 | 89 | 1005.6 |
| 20260505123132 | 22 | 224 | 3.2 | 3.2 | 0.00 | 0.00 | 0.00 | 89 | 1006.0 |
| 20260505122629 | 22 | 179 | 1.6 | 1.6 | 0.00 | 0.00 | 0.00 | 89 | 1006.0 |
| 20260505122126 | 22 | 190 | 1.6 | 1.6 | 0.00 | 0.00 | 0.00 | 89 | 1005.7 |
| 20260505121622 | 22 | 216 | 4.8 | 4.8 | 0.00 | 0.00 | 0.00 | 90 | 1006.1 |
| 20260505121119 | 22 | 204 | 3.2 | 3.2 | 0.00 | 0.00 | 0.00 | 90 | 1005.9 |
| 20260505120615 | 22 | 181 | 1.6 | 3.2 | 0.00 | 0.00 | 0.00 | 90 | 1005.8 |
| 20260505120112 | 22 | 194 | 1.6 | 1.6 | 0.00 | 0.00 | 0.00 | 90 | 1005.5 |
| 20260505115606 | 22 | 211 | 4.8 | 4.8 | 0.00 | 0.00 | 0.00 | 90 | 1005.5 |
| 20260505115104 | 22 | 203 | 9.7 | 11.3 | 0.00 | 0.00 | 0.00 | 90 | 1005.5 |
| 20260505114601 | 22 | 211 | 1.6 | 3.2 | 0.00 | 0.00 | 0.00 | 90 | 1005.3 |
| 20260505114057 | 22 | 204 | 4.8 | 4.8 | 0.00 | 0.00 | 0.00 | 90 | 1005.4 |
| 20260505113553 | 22 | 236 | 4.8 | 4.8 | 0.00 | 0.00 | 0.00 | 90 | 1005.8 |
| 20260505113050 | 22 | 216 | 3.2 | 4.8 | 0.00 | 0.00 | 0.00 | 91 | 1005.9 |
| 20260505112546 | 22 | 243 | 3.2 | 3.2 | 0.00 | 0.00 | 0.00 | 91 | 1005.5 |
| 20260505112044 | 21 | 237 | 3.2 | 3.2 | 0.00 | 0.00 | 0.00 | 91 | 1005.7 |
| 20260505111538 | 21 | 205 | 1.6 | 3.2 | 0.00 | 0.00 | 0.00 | 91 | 1005.6 |
| 20260505111035 | 21 | 220 | 1.6 | 1.6 | 0.00 | 0.00 | 0.00 | 91 | 1005.6 |
| 20260505110531 | 21 | 201 | 3.2 | 4.8 | 0.00 | 0.00 | 0.00 | 91 | 1005.4 |